Погода в Богословском

Россия / Тульская область     54°46′06″N   37°59′48″E
темп.,
°C
ветер,
м/с
пор.,
м/с
влажн.,
%
обл.,
%
осадки,
мм/ч
давл.,
гПа
погр.,
м
15 апреля, чт
чт1500:00+11юв335579 0.0 101624
03:00+10ююв2257100 0.0 101612
06:00+10всв3462100 0.0 101548
09:00+14вюв4754100 0.0 1015270
12:00+17в4545100 0.0 1015603
15:00+19в5840100 0.0 10141490
18:00+17в51046100 0.0 1014261
21:00+13юв4867100 0.3 1015184
16 апреля, пт
пт1600:00+10всв2288100 0.9 101621
03:00+9св3486100 1.0 101676
06:00+9всв51187100 0.0 1017329
09:00+11в6976100 0.1 1019539
12:00+13в7973100 0.1 1019737
15:00+16в7861100 0.1 10191181
18:00+14всв71167100 0.4 1018850
21:00+12в61281100 3.1 1020604
17 апреля, сб
сб1700:00+10в61089100 1.1 1021513
03:00+8всв6109195 1.1 1022385
06:00+7всв6119380 0.0 1022414
09:00+9всв7118270 0.0 1022566
12:00+13всв810645 0.0 1021958
15:00+16всв8115490 0.0 10201468
18:00+14всв9135990 0.0 10201161
21:00+10всв7146766 0.0 1021638
18 апреля, вс
вс1800:00+9св6136674 0.0 1021585
03:00+6св6136572 0.0 1022468
06:00+6св61366100 0.0 1022525
09:00+8всв71262100 0.0 1022817
12:00+10в7105567 0.0 10231117
15:00+13в71046100 0.0 10222019
18:00+11вюв476194 0.0 1023683
21:00+8в247674 0.1 1024107
19 апреля, пн
пн1900:00+6св348298 0.0 102568
03:00+5всв41078100 0.0 1025248
06:00+4св410826 0.0 1026292
09:00+8всв68726 0.0 1026672
12:00+11всв6856100 0.1 10261710
15:00+10всв5758100 0.1 10251269
18:00+9всв4862100 0.0 1026497
21:00+7в51059100 0.0 1026482